Flag for U.S.A. Weather past 2 weeks in Lincoln, Nebraska, U.S.A.

Now
53 °F

Light rain. Fog.


Feels Like: 48 °F
Forecast: 45 / 56 °F
Wind: 17 mph from Northwest

Location: Lincoln Municipal Airport

Current Time: Apr 19, 2015 at 9:30:34 AM

Latest Report: Apr 19, 2015 at 8:54 AM


Visibility: 6 mi

Pressure: 29.77 "Hg

Humidity: 89%

Dew point: 50 °F

Location of LincolnLocation

Historic Weather in Lincoln — Graph

°F

Lincoln temperature yesterday

Maximum temperature yesterday: 66 °F (at 5:54 PM)
Minimum temperature yesterday: 57 °F (at 3:54 AM)
Average temperature yesterday: 62 °F

Past Weeks' High & Low Weather Summary

 TemperatureHumidityPressure
High77 °F (Apr 12, 2:54 PM)97% (Apr 6, 9:54 AM)30.32 "Hg (Apr 6, 9:54 AM)
Low39 °F (Apr 9, 3:54 PM)16% (Apr 4, 4:54 PM)29.62 "Hg (Apr 9, 4:54 AM)
Average56 °F66%29.96 "Hg
* Reported Apr 4 8:54 AM — Apr 19 8:02 AM, Lincoln, Weather by CustomWeather, © 2015

Note: Actual official high and low records may vary slightly from our data, if they occured in-between our weather recording intervals... More about our weather records

Advertising

Lincoln weather history for previous 24 hours

 ConditionsComfort  
Time TempWeatherWind HumidityBarometerVisibility
8:02 AM
Sun, Apr 19
54 °FLight rain. Fog.9 mph90%29.77 "Hg5 mi
7:54 AM54 °FLight rain. Fog.10 mph90%29.76 "Hg4 mi
6:54 AM54 °FLight rain. Fog.7 mph90%29.75 "Hg6 mi
5:54 AM55 °FLight rain. Overcast.8 mph90%29.74 "Hg7 mi
4:54 AM55 °FMostly cloudy.3 mph87%29.75 "Hg10 mi
4:02 AM56 °FMostly cloudy.5 mph84%29.76 "Hg10 mi
3:54 AM56 °FMostly cloudy.5 mph84%29.74 "Hg10 mi
2:54 AM54 °FClear.5 mph90%29.75 "Hg10 mi
1:54 AM56 °FClear.3 mph84%29.76 "Hg10 mi
12:54 AM58 °FMostly cloudy.3 mph81%29.79 "Hg10 mi
11:54 PM
Sat, Apr 18
59 °FMostly cloudy.5 mph75%29.79 "Hg10 mi
10:54 PM61 °FOvercast.8 mph81%29.80 "Hg10 mi
9:54 PM60 °FPassing clouds.8 mph86%29.81 "Hg10 mi
8:54 PM61 °FPassing clouds.13 mph83%29.80 "Hg10 mi
7:54 PM63 °FMore clouds than sun.14 mph75%29.81 "Hg10 mi
6:54 PM64 °FScattered clouds.13 mph73%29.80 "Hg10 mi
5:54 PM66 °FSunny.10 mph70%29.78 "Hg10 mi
4:54 PM65 °FMostly cloudy.10 mph73%29.80 "Hg10 mi
4:03 PM65 °FBroken clouds.8 mph78%29.83 "Hg10 mi
3:54 PM64 °FMostly cloudy.9 mph81%29.83 "Hg10 mi
3:01 PM63 °FOvercast.9 mph87%29.87 "Hg10 mi
2:04 PM65 °FPartly sunny.15 mph81%29.89 "Hg10 mi
1:54 PM65 °FCloudy.12 mph81%29.87 "Hg10 mi
12:54 PM63 °FOvercast.7 mph87%29.88 "Hg9 mi
11:54 AM64 °FMostly cloudy.7 mph87%29.88 "Hg8 mi
10:54 AM61 °FFog.8 mph93%29.89 "Hg4 mi
10:02 AM59 °FLight rain. Fog.3 mph96%29.92 "Hg4 mi
9:54 AM59 °FLight rain. Fog.5 mph96%29.90 "Hg2 mi
Weather by CustomWeather, © 2015

See weather overviewHow to use our weather pages